Details for FedEx at KAFW




Go Back


Latest METAR
Local Time

KAFW 240653Z 17005KT 10SM FEW300 24/20 A3004 RMK AO2 SLP158 T02390200

24/05/2018, 02:47:11

Description
Results
FedEx Logo
Number of Pilots based at KAFW
0 Pilots Based here
Number of FedEx Flights Departed from KAFW
0 Flights Departed
Number of FedEx Flights Arrived at KAFW
0 Flights Arrived
Number of FedEx Schedules Departing from KAFW
55 Schedules
Number of FedEx Schedules Arriving at KAFW
50 Schedules
Number of FedEx Schedules Departing from KAFW availible today
10 Schedules Today
Number of FedEx Schedules Arriving at KAFW availible today
7 Schedules Today
Average Landing Rate at KAFW
0 fpm
FedEx Average Landing Rate at KAFW
0 fpm
Total Fuel Purchased at KAFW by FedEx
0.00 kgs / 0.00 lbs

Pilots Based at KAFW


Pilot ID
Pilot Name
Pilot Rank
No. of Flights
No. of Flying Hours
There are no pilots assigned to this hub!   Will you be the first?
Content